Location: Cointrin
(46.2167°N, 6.1167°E)
Time: 16:34:00
(UTC+00:00)

Cosmos 1745 Rocket - Pass Details

Date: 08 February 2023
Orbit: 951 x 999 km, 83.0° (Epoch: 22 March)

Event Time Altitude Azimuth Distance (km) Brightness Sun altitude
Rises 17:49:59 0° 354° (N) 3,686 7.0 -10.7°
Reaches altitude 10° 17:52:34 10° 358° (N) 2,728 6.3 -11.2°
Maximum altitude 17:58:44 61° 78° (ENE) 1,091 4.0 -12.2°
Drops below altitude 10° 18:04:47 10° 158° (SSE) 2,681 6.2 -13.3°
Sets 18:07:18 0° 162° (SSE) 3,619 6.9 -13.7°
